Alliance, NE

5:29 PM MST on February 23, 2017 (GMT -0700)
Alliance Municipal

Weather History for KAIA - June, 2013

Change the Weather History Date:

Saturday, June 1, 2013

  Actual Average Record
Temperature  
Mean Temperature 52 °F 60 °F  
Max Temperature 66 °F 75 °F 98 °F (1940)
Min Temperature 37 °F 45 °F 28 °F (1903)
Degree Days  
Heating Degree Days 13 6  
Month to date heating degree days 13 6  
Since 1 June heating degree days 13 6  
Since 1 July heating degree days 7141 7221  
Cooling Degree Days 0 1  
Month to date cooling degree days 0 1  
Year to date cooling degree days 22 11  
Since 1 June cooling degree days 0 1  
Growing Degree Days 4 (Base 50)    
Moisture  
Dew Point 41 °F    
Average Humidity 65    
Maximum Humidity 92    
Minimum Humidity 37    
Precipitation  
Precipitation T in 0.10 in 1.14 in (2014)
Month to date precipitation T 0.10  
Year to date precipitation 5.19 5.61  
Sea Level Pressure  
Sea Level Pressure 30.08 in    
Wind  
Wind Speed 14 mph (NNW)    
Max Wind Speed 25 mph    
Max Gust Speed 35 mph    
Visibility 10 miles    
Events Rain    
T = Trace of Precipitation, MM = Missing Value Source: NWS Daily Summary

Daily Weather History Graph

Daily Weather History Graph

Search for Another Location

Airport or City:

Trip Planner

Search our weather history database for the weather conditions in past years. The results will help you decide how hot, cold, wet, or windy it might be!

Date:

Astronomy

Jun. 01, 2013 Rise Set
Actual Time 5:17 AM MDT 8:20 PM MDT
Civil Twilight 4:44 AM MDT 8:54 PM MDT
Nautical Twilight 4:01 AM MDT 9:37 PM MDT
Astronomical Twilight 3:10 AM MDT 10:28 PM MDT
Moon 1:21 AM MDT (6/1) 1:46 PM MDT (6/1)
Length of Visible Light 16h 10m
Length of Day
15h 02m
Last Quarter, 40% of the Moon is Illuminated
Jun 1
Last Quarter
Jun 8
New
Jun 16
First Quarter
Jun 23
Full
Jun 29
Last Quarter

Hourly Weather History & Observations

Time (MDT) Temp. Windchill Dew Point Humidity Pressure Visibility Wind Dir Wind Speed Gust Speed Precip Events Conditions
12:53 AM 46.9 °F - 42.1 °F 83% 29.90 in 10.0 mi NW 24.2 mph 31.1 mph N/A   Overcast
1:53 AM 46.9 °F - 43.0 °F 86% 29.92 in 10.0 mi NW 18.4 mph 28.8 mph N/A   Overcast
2:53 AM 46.9 °F - 43.0 °F 86% 29.92 in 10.0 mi NW 15.0 mph 23.0 mph N/A   Overcast
3:53 AM 46.9 °F - 42.1 °F 83% 29.95 in 10.0 mi NW 18.4 mph 25.3 mph N/A   Overcast
4:53 AM 46.9 °F - 41.0 °F 80% 29.99 in 10.0 mi NNW 13.8 mph - N/A   Overcast
5:53 AM 46.0 °F 39.0 °F 39.9 °F 79% 30.03 in 10.0 mi NNW 17.3 mph 23.0 mph N/A   Mostly Cloudy
6:53 AM 46.0 °F 39.0 °F 41.0 °F 83% 30.06 in 10.0 mi NNW 17.3 mph 27.6 mph 0.00 in Rain Light Rain
7:37 AM 46.4 °F 39.0 °F 41.0 °F 81% 30.10 in 10.0 mi NNW 19.6 mph 28.8 mph 0.00 in   Overcast
7:53 AM 46.9 °F - 41.0 °F 80% 30.10 in 10.0 mi NNW 15.0 mph - 0.00 in   Overcast
8:53 AM 48.0 °F - 42.1 °F 80% 30.12 in 10.0 mi NW 17.3 mph - N/A   Overcast
9:22 AM 51.8 °F - 41.0 °F 67% 30.13 in 10.0 mi NW 21.9 mph 26.5 mph N/A   Overcast
9:53 AM 52.0 °F - 42.1 °F 69% 30.12 in 10.0 mi NNW 18.4 mph 28.8 mph N/A   Overcast
10:06 AM 51.8 °F - 42.8 °F 71% 30.14 in 10.0 mi NW 17.3 mph 29.9 mph N/A   Overcast
10:34 AM 55.4 °F - 44.6 °F 67% 30.14 in 10.0 mi NW 23.0 mph 28.8 mph N/A   Mostly Cloudy
10:53 AM 57.0 °F - 45.0 °F 64% 30.10 in 10.0 mi North 20.7 mph 28.8 mph N/A   Mostly Cloudy
11:53 AM 59.0 °F - 43.0 °F 55% 30.10 in 10.0 mi North 20.7 mph 26.5 mph N/A   Overcast
12:53 PM 61.0 °F - 43.0 °F 52% 30.10 in 10.0 mi NNW 19.6 mph 27.6 mph N/A   Mostly Cloudy
1:53 PM 61.0 °F - 41.0 °F 48% 30.09 in 10.0 mi NW 16.1 mph 26.5 mph N/A   Mostly Cloudy
2:53 PM 64.0 °F - 39.0 °F 40% 30.08 in 10.0 mi NNW 13.8 mph 26.5 mph N/A   Scattered Clouds
3:53 PM 63.0 °F - 39.9 °F 43% 30.08 in 10.0 mi North 16.1 mph 23.0 mph N/A   Partly Cloudy
4:53 PM 64.0 °F - 37.9 °F 38% 30.08 in 10.0 mi NNW 15.0 mph 25.3 mph N/A   Scattered Clouds
5:53 PM 64.0 °F - 41.0 °F 43% 30.08 in 10.0 mi NNE 12.7 mph 19.6 mph N/A   Mostly Cloudy
6:53 PM 61.0 °F - 42.1 °F 50% 30.09 in 10.0 mi NNE 12.7 mph - N/A   Clear
7:53 PM 55.9 °F - 43.0 °F 62% 30.12 in 10.0 mi NNE 6.9 mph - N/A   Clear
8:53 PM 48.9 °F - 42.1 °F 77% 30.15 in 10.0 mi NNE 6.9 mph - N/A   Clear
9:53 PM 45.0 °F 40.6 °F 39.9 °F 82% 30.17 in 10.0 mi NE 8.1 mph - N/A   Clear
10:53 PM 43.0 °F 40.3 °F 37.9 °F 82% 30.17 in 10.0 mi ENE 4.6 mph - N/A   Clear
11:53 PM 37.9 °F 35.5 °F 35.1 °F 89% 30.17 in 10.0 mi South 3.5 mph - N/A   Clear